This is the latest recevied weather packets stored in our database for station/object SP6KBU-12. If no packets are shown the sender has not sent any weather packets the latest 10 day(s).
| Time | Temp. | Humidity | Pressure | Rain* | Wind** | Luminosity | Snow |
|---|---|---|---|---|---|---|---|
| 1777655474 | 23.89° C | 23% | 1027 hPa | - | - | - | - |
| 1777654574 | 24.44° C | 23% | 1027.1 hPa | - | - | - | - |
| 1777653674 | 23.89° C | 23% | 1027.1 hPa | - | - | - | - |
| 1777652777 | 23.89° C | 22% | 1027.2 hPa | - | - | - | - |
| 1777651877 | 25° C | 22% | 1027.4 hPa | - | - | - | - |
| 1777650973 | 24.44° C | 23% | 1027.5 hPa | - | - | - | - |
| 1777650073 | 23.33° C | 23% | 1027.5 hPa | - | - | - | - |
| 1777649173 | 22.78° C | 23% | 1027.6 hPa | - | - | - | - |
| 1777648272 | 23.33° C | 24% | 1027.5 hPa | - | - | - | - |
| 1777647373 | 22.22° C | 25% | 1027.8 hPa | - | - | - | - |
| 1777646472 | 22.22° C | 25% | 1027.9 hPa | - | - | - | - |
| 1777645572 | 22.22° C | 25% | 1027.7 hPa | - | - | - | - |
| 1777644672 | 22.22° C | 25% | 1028 hPa | - | - | - | - |
| 1777643773 | 22.22° C | 25% | 1028 hPa | - | - | - | - |
| 1777642872 | 22.22° C | 26% | 1028.1 hPa | - | - | - | - |
| 1777641972 | 22.22° C | 27% | 1028.2 hPa | - | - | - | - |
| 1777641073 | 21.11° C | 27% | 1028.3 hPa | - | - | - | - |
| 1777640173 | 21.11° C | 27% | 1028.5 hPa | - | - | - | - |
| 1777639273 | 21.67° C | 28% | 1028.7 hPa | - | - | - | - |
| 1777638373 | 21.11° C | 27% | 1028.9 hPa | - | - | - | - |
| 1777637473 | 21.11° C | 27% | 1028.9 hPa | - | - | - | - |
| 1777636572 | 20.56° C | 28% | 1029 hPa | - | - | - | - |
| 1777635672 | 20° C | 28% | 1029.1 hPa | - | - | - | - |
| 1777634772 | 20.56° C | 29% | 1029 hPa | - | - | - | - |
| 1777633871 | 20° C | 27% | 1029.2 hPa | - | - | - | - |
* Rain since midnight (hover to see other rain measurements)
** Current wind speed in m/s (hover to see current wind gust speed)